User: anonymous   Login
Location: Unspecified
(0.0000°N, 0.0000°E)
Time: 16:39:09
(UTC+01:00)
Language:

Iridium 39 - Orbit

View from above orbital plane
View from above orbital plane
View from above satellite
View from above satellite

Ground track
Ground track

The orbit data is extracted from the following two-line orbital elements,

1 25042U 97069D   16337.50529857  .00000150  00000-0  36380-4 0  9995
2 25042  86.3924 103.1383 0017123 243.8604 116.0837 14.46111251998296
Epoch (UTC): 02 December 2016 12:07:37
Eccentricity: 0.0017123
inclination: 86.3924°
perigee height: 726 km
apogee height: 750 km
right ascension of ascending node: 103.1383°
argument of perigee: 243.8604°
revolutions per day: 14.46111251
mean anomaly at epoch: 116.0837°
orbit number at epoch: 99829

The dashed part of the orbit path shows where the satellite is in the earth's shadow,  

DLR